Regional Weather Roundup
Issued by NWS

Home | Current Version | Previous Version | Graphics & Text | Print | Product List | Glossary On
Versions: 1 2 3 4 5 6 7 8 9 10 11 12 13 14 15 16 17 18 19 20 21 22 23 24 25 26 27 28 29 30 31 32 33 34 35 36 37 38 39 40 41 42 43 44 45 46 47 48 49 50
000
ASUS43 KBIS 031520
RWRND

NORTH DAKOTA REGIONAL WEATHER ROUNDUP
NATIONAL WEATHER SERVICE BISMARCK ND
1000 AM CDT SUN MAY 03 2015

NOTE: "FAIR" INDICATES FEW OR NO CLOUDS BELOW 12,000 FEET WITH NO
SIGNIFICANT WEATHER AND/OR OBSTRUCTIONS TO VISIBILITY.


NDZ001>003-009>011-017-031600-
NORTHWEST NORTH DAKOTA

CITY           SKY/WX    TMP DP  RH WIND       PRES   REMARKS
WILLISTON      SUNNY     53  25  33 NW12      30.02R
MINOT          SUNNY     55  30  38 NW16      29.96R
MINOT AFB      SUNNY     55  31  40 NW21      29.95R
$$

NDZ018>021-031>035-040>046-031600-
SOUTHWEST NORTH DAKOTA

CITY           SKY/WX    TMP DP  RH WIND       PRES   REMARKS
BISMARCK       CLOUDY    54  35  48 N17G24    29.98R
DICKINSON      PTSUNNY   54  33  45 N12       29.99R
GARRISON         N/A     54  36  50 NW12      29.98R
HETTINGER ARPT CLOUDY    51  36  56 N12       29.99R
$$

NDZ004>008-012>016-024-026-027-054-031600-
NORTHEAST NORTH DAKOTA

CITY           SKY/WX    TMP DP  RH WIND       PRES   REMARKS
GRAND FORKS    CLOUDY    56  39  53 NW15G24   29.87R
GRND FRKS AFB  CLOUDY    55  38  53 NW13      29.88R
DEVILS LAKE    PTSUNNY   57  28  33 NW22G28   29.91S
$$

NDZ022-023-025-028>030-036>039-047>053-031600-
SOUTHEAST NORTH DAKOTA

CITY           SKY/WX    TMP DP  RH WIND       PRES   REMARKS
FARGO          CLOUDY    60  41  49 N17G23    29.86R
JAMESTOWN      CLOUDY    54  34  46 N28G36    29.88S HAZE
$$



USA.gov is the U.S. government's official web portal to all federal, state and local government web resources and services.